{"data":{"norad_id":53661,"epoch":"2026-05-25T02:33:02.706048Z","epoch_age_seconds":59682,"freshness":"FRESH","line1":"1 53661U 22105P   26145.10628132  .00000060  00000+0  82359-5 0  9999","line2":"2 53661  97.4514  25.0296 0002031  70.7291 289.4156 15.05649323204727","mean_motion":15.05649323,"eccentricity":0.0002031,"inclination_deg":97.4514,"raan_deg":25.0296,"arg_perigee_deg":70.7291,"mean_anomaly_deg":289.4156,"bstar":8.2359e-6,"rev_number":20472,"period_min":95.639799919068,"perigee_km":548.10622490842,"apogee_km":550.92023643212,"semimajor_km":6927.6502306703,"source":"CELESTRAK","updated_at":"2026-05-25T13:38:17.486774Z"}}